GW3249 Weather Reports


time (UTC)temp
C
wind
direction
speed
KPH
gust
KPH
rain 1hr
cm
rain 24hr
cm
rain mn
cm
humidity
%
barometer
mb
20260504020819 16 341 3.2 8.0 0.00 1.17 0.00 86 1009.0
20260504020309 16 338 3.2 6.4 0.00 1.17 0.00 87 1009.1
20260504014747 16 343 3.2 6.4 0.00 1.17 0.00 87 1009.3
20260504013735 16 347 1.6 4.8 0.00 1.19 0.00 89 1009.4
20260504013225 16 353 1.6 4.8 0.00 1.19 0.00 89 1009.4
20260504012719 16 343 3.2 6.4 0.00 1.19 0.00 89 1009.4
20260504011703 15 354 3.2 6.4 0.00 1.19 0.00 92 1009.5
20260504011157 15 349 3.2 6.4 0.00 1.19 0.00 93 1009.6
20260504010651 15 343 3.2 6.4 0.00 1.22 0.00 94 1009.7
20260504010141 15 348 3.2 6.4 0.00 1.22 0.00 96 1009.8
20260504005635 15 19 3.2 6.4 0.00 1.24 0.00 97 1009.9
20260504005130 15 324 3.2 6.4 0.00 1.24 0.00 97 1009.8
20260504004620 14 354 1.6 6.4 0.00 1.24 0.00 98 1009.8
20260504004113 14 353 1.6 4.8 0.00 1.27 0.00 98 1009.8
20260504003607 14 331 1.6 4.8 0.00 1.27 0.00 99 1009.8
20260504003057 14 343 1.6 6.4 0.00 1.27 0.00 99 1009.8
20260504002552 14 334 1.6 6.4 0.00 1.27 0.00 99 1009.7
20260504002045 14 339 3.2 6.4 0.00 1.32 0.00 99 1009.8
20260504001029 14 327 1.6 4.8 0.00 1.37 0.00 99 1009.8
20260504000523 13 342 1.6 4.8 0.00 1.37 0.00 99 1009.9
20260504000012 13 3 1.6 4.8 0.00 1.40 0.00 99 1009.9
20260503235505 13 336 1.6 4.8 0.00 1.42 0.00 99 1009.9
20260503234450 13 353 0.0 3.2 0.00 1.47 0.00 99 1009.9
20260503233944 12 159 0.0 3.2 0.00 1.52 0.00 99 1010.0
20260503232932 12 159 0.0 3.2 0.00 1.60 0.00 99 1010.0
20260503232417 12 159 0.0 3.2 0.00 1.65 0.00 99 1010.0
20260503231911 12 211 0.0 3.2 0.00 1.68 0.00 99 1010.0
20260503231401 12 211 0.0 3.2 0.00 1.70 0.00 99 1010.0
20260503230856 12 192 0.0 3.2 0.00 1.73 0.00 99 1009.9
20260503230349 12 192 0.0 3.2 0.00 1.75 0.00 99 1009.9
20260503225839 12 192 0.0 3.2 0.00 1.83 0.00 99 1009.9
20260503224827 11 271 0.0 3.2 0.00 1.83 0.00 99 1009.9
20260503224317 11 225 0.0 3.2 0.00 1.88 0.00 99 1009.9
20260503223305 11 241 1.6 3.2 0.00 1.98 0.00 99 1009.8
20260503222755 11 161 0.0 3.2 0.00 2.03 0.00 99 1009.8
20260503222249 11 180 0.0 3.2 0.00 2.03 0.00 99 1009.8
20260503221743 11 180 1.6 3.2 0.00 2.03 0.00 99 1009.7
20260503221233 11 212 0.0 3.2 0.00 2.03 0.00 99 1009.9
20260503220728 11 144 0.0 3.2 0.00 2.03 0.00 99 1010.0
20260503220222 11 144 0.0 3.2 0.00 2.03 0.00 99 1009.9
20260503215711 11 144 0.0 3.2 0.00 2.06 0.00 99 1010.0
20260503215205 11 180 1.6 3.2 0.00 2.06 0.00 99 1009.9
20260503214150 11 178 0.0 3.2 0.00 2.06 0.00 98 1009.8
20260503213644 11 172 0.0 3.2 0.00 2.06 0.00 98 1009.7
20260503213137 11 160 0.0 3.2 0.00 2.06 0.00 98 1009.7
20260503212627 11 160 0.0 3.2 0.00 2.06 0.00 98 1009.5
20260503212122 11 161 0.0 0.0 0.00 2.06 0.00 98 1009.6
20260503211615 11 182 0.0 3.2 0.00 2.06 0.00 98 1009.5
20260503211105 11 182 0.0 3.2 0.00 2.06 0.00 98 1009.6
20260503210559 11 182 0.0 3.2 0.00 2.06 0.00 98 1009.6
20260503210053 11 182 1.6 3.2 0.00 2.06 0.00 98 1009.5
20260503205038 11 182 0.0 3.2 0.00 2.06 0.00 98 1009.5
20260503204531 11 187 0.0 1.6 0.00 2.08 0.00 98 1009.5
20260503204021 11 189 1.6 3.2 0.00 2.08 0.00 98 1009.4
20260503203515 11 180 1.6 3.2 0.00 2.08 0.00 98 1009.4
20260503203009 11 182 1.6 3.2 0.00 2.08 0.00 98 1009.4
20260503202459 11 182 0.0 3.2 0.00 2.08 0.00 98 1009.4
20260503201448 11 182 0.0 1.6 0.00 2.08 0.00 98 1009.6
20260503200431 11 182 0.0 1.6 0.00 2.11 0.00 98 1009.6
20260503195925 11 182 0.0 3.2 0.00 2.11 0.00 98 1009.6
20260503195415 11 182 0.0 3.2 0.00 2.11 0.00 98 1009.5
20260503194909 11 182 0.0 3.2 0.00 2.11 0.00 98 1009.5
20260503194403 11 182 0.0 3.2 0.00 2.11 0.00 98 1009.4
20260503193348 11 181 0.0 3.2 0.00 2.11 0.00 98 1009.4
20260503192841 11 181 0.0 3.2 0.00 2.11 0.00 98 1009.4
20260503192331 11 205 0.0 3.2 0.00 2.11 0.00 98 1009.3
20260503191825 11 189 0.0 3.2 0.00 2.11 0.00 98 1009.2
20260503191319 11 189 0.0 3.2 0.00 2.11 0.00 98 1009.2
20260503190811 11 153 1.6 6.4 0.00 2.11 0.00 98 1009.2
20260503185757 11 180 1.6 6.4 0.00 2.11 0.00 98 1009.2
20260503185247 12 180 1.6 4.8 0.00 2.11 0.00 99 1009.2
20260503184741 12 183 0.0 4.8 0.00 2.11 0.00 99 1009.2
20260503184235 12 170 1.6 4.8 0.00 2.11 0.00 99 1009.2
20260503183725 12 170 1.6 4.8 0.00 2.11 0.00 99 1009.2
20260503182713 12 163 0.0 4.8 0.00 2.11 0.00 99 1009.1
20260503182204 11 180 1.6 4.8 0.00 2.11 0.00 99 1009.3
20260503181658 11 207 1.6 4.8 0.00 2.11 0.00 99 1009.4
20260503181151 11 272 0.0 3.2 0.00 2.11 0.00 99 1009.3
20260503180641 11 161 0.0 4.8 0.00 2.11 0.00 99 1009.1
20260503175630 11 180 0.0 4.8 0.00 2.11 0.00 99 1009.2
20260503174613 11 180 0.0 0.0 0.00 2.11 0.00 99 1009.2
20260503174107 11 182 0.0 0.0 0.00 2.11 0.00 99 1009.4
20260503173557 11 192 0.0 0.0 0.00 2.11 0.00 99 1009.7
20260503173051 11 218 0.0 0.0 0.00 2.11 0.00 99 1009.7
20260503172546 11 218 0.0 0.0 0.00 2.11 0.00 99 1009.7
20260503172035 11 218 0.0 0.0 0.00 2.11 0.00 98 1009.8
20260503171529 11 218 0.0 0.0 0.00 2.11 0.00 99 1009.6
20260503171023 11 218 0.0 0.0 0.00 2.11 0.00 98 1009.7
20260503170526 11 218 0.0 0.0 0.00 2.11 0.00 98 1009.9
20260503150727 11 83 0.0 0.0 0.00 2.11 0.00 98 1010.3
20260503150217 11 83 0.0 0.0 0.00 2.11 0.00 98 1010.1
20260503140206 12 83 0.0 0.0 0.00 2.11 0.00 98 1009.5
20260503131145 13 83 0.0 0.0 0.00 2.11 2.11 98 1010.1
20260503130644 13 83 0.0 0.0 0.00 2.11 2.11 98 1010.3
20260503130142 13 83 0.0 0.0 0.00 2.11 2.11 98 1010.4
20260503120112 14 66 0.0 0.0 0.00 2.11 2.11 98 1010.0
20260503081402 16 38 0.0 0.0 0.08 2.08 2.08 98 1009.6
20260503080851 16 37 0.0 0.0 0.05 2.06 2.08 98 1009.5
20260503080345 16 69 0.0 0.0 0.05 2.06 2.06 98 1009.5
20260503072755 16 75 1.6 4.8 0.08 2.03 2.03 98 1009.3
20260503072245 16 73 0.0 4.8 0.10 2.03 2.03 98 1009.2
20260503071234 16 39 0.0 4.8 0.10 2.01 2.01 98 1009.5
20260503070723 16 39 0.0 4.8 0.10 2.01 2.01 98 1009.4
20260503070217 16 83 0.0 4.8 0.10 2.01 2.01 98 1009.4
20260503055034 16 9 0.0 3.2 0.23 1.88 1.88 98 1010.0
20260503054527 16 56 0.0 3.2 0.23 1.85 1.85 98 1010.0
20260503054021 16 78 1.6 4.8 0.25 1.85 1.85 98 1010.1
20260503053512 16 86 1.6 4.8 0.28 1.83 1.83 98 1010.2
20260503053005 16 65 0.0 4.8 0.33 1.83 1.83 98 1010.1
20260503052459 16 124 0.0 0.0 0.38 1.83 1.83 98 1010.2
20260503051949 16 105 0.0 0.0 0.41 1.80 1.80 98 1010.3
20260503050938 16 82 0.0 1.6 0.51 1.75 1.75 98 1010.5
20260503045922 16 353 0.0 4.8 0.58 1.73 1.73 98 1010.4
20260503045415 16 79 0.0 4.8 0.61 1.68 1.68 98 1010.4
20260503044359 16 64 0.0 4.8 0.61 1.63 1.63 98 1010.6
20260503043854 16 87 1.6 4.8 0.61 1.57 1.57 98 1010.6
20260503043344 16 10 1.6 4.8 0.56 1.55 1.55 98 1010.6
20260503042837 16 15 0.0 4.8 0.53 1.50 1.50 98 1010.8
20260503041822 16 33 0.0 4.8 0.43 1.37 1.37 98 1011.1
20260503041315 15 75 0.0 4.8 0.36 1.30 1.32 98 1010.9
20260503040259 15 333 0.0 0.0 0.23 1.17 1.17 98 1011.2
20260503035753 15 333 0.0 0.0 0.18 1.12 1.12 98 1011.0
20260503035248 15 332 0.0 0.0 0.13 1.07 1.07 98 1010.8
20260503034740 15 333 0.0 0.0 0.08 1.02 1.02 98 1010.6
20260503034232 15 357 0.0 4.8 0.05 0.99 0.99 98 1010.6
20260503033725 15 57 0.0 4.8 0.05 0.99 0.99 98 1010.1
20260503032709 15 121 1.6 4.8 0.03 0.97 0.97 98 1010.1
20260503032203 15 69 0.0 4.8 0.00 0.94 0.94 98 1010.0
20260503031654 15 28 0.0 4.8 0.00 0.94 0.94 98 1009.9
20260503030641 15 79 0.0 3.2 0.00 0.94 0.94 98 1010.1
20260503030132 15 128 0.0 3.2 0.00 0.94 0.94 98 1010.1
20260503025626 15 7 0.0 3.2 0.00 0.94 0.94 98 1010.3
20260503025119 15 86 0.0 3.2 0.00 0.94 0.94 98 1010.4
20260503024112 15 103 0.0 3.2 0.00 0.94 0.94 98 1010.8
20260503023612 15 104 0.0 4.8 0.03 0.94 0.94 98 1010.8
20260503023113 15 153 0.0 4.8 0.03 0.94 0.94 98 1010.9
20260503022612 15 62 0.0 4.8 0.03 0.94 0.94 98 1010.8
20260503022113 15 132 1.6 4.8 0.03 0.94 0.94 98 1011.1
20260503021612 15 137 1.6 4.8 0.03 0.94 0.94 98 1011.2
20260503021112 15 130 1.6 4.8 0.03 0.94 0.94 98 1011.3